SCP
3 2 2 2 1 1 1 1 0 0 0 0 0 0 0 0 0 0 0 0 0 0 0 0 0 0 0 0 0 0 0 0 0 0 0 0 0 0 0 0 0 0 0
3 3 2 2 2 1 1 1 0 0 1 0 0 0 0 0 0 0 0 0 0 0 0 0 0 0 0 0 0 0 0 0 0 0 0 0 0 0 0 0 0 0 0
4 3 3 2 2 1 1 1 1 1 1 1 1 1 0 0 0 0 0 0 0 0 0 0 0 0 0 0 0 0 0 0 0 0 0 0 0 0 0 0 0 0 0
4 3 3 2 2 1 1 1 1 1 1 1 1 1 1 1 0 0 0 0 0 0 0 0 0 0 0 0 0 0 0 0 0 0 0 0 0 0 0 0 0 0 0
3 3 2 2 2 1 1 1 1 1 1 1 1 1 1 1 1 0 0 0 0 0 0 0 0 0 0 0 0 0 0 0 0 0 0 0 0 0 0 0 0 0 0
3 2 2 2 2 2 1 1 1 1 1 1 1 1 1 1 1 1 1 1 0 0 0 0 0 0 0 0 0 0 0 0 0 0 0 0 0 0 0 0 0 0 0
3 2 2 2 2 2 2 1 1 1 1 1 1 1 1 1 1 1 1 1 1 1 1 1 1 1 1 1 1 0 0 0 0 0 0 1 1 1 0 0 0 0 0
3 3 3 2 2 2 2 2 1 1 1 1 1 1 1 1 1 1 1 1 1 1 1 1 1 1 1 1 1 1 0 0 0 0 1 1 2 2 1 1 0 0 0
4 4 3 2 2 2 2 2 2 1 1 1 1 1 1 1 1 1 1 1 1 1 1 1 1 1 1 1 1 1 1 0 0 0 1 1 2 2 1 1 1 0 0
5 5 4 3 3 3 3 2 2 2 2 2 2 2 2 2 2 2 2 2 2 1 1 1 1 1 1 1 1 1 1 1 0 0 1 1 2 2 2 1 1 1 0
5 5 5 4 3 2 3 3 2 2 2 2 2 2 2 2 3 2 2 3 3 2 2 1 2 1 1 1 1 1 1 1 0 0 1 2 3 3 2 2 1 1 1
5 5 5 5 4 3 3 3 2 2 2 2 2 3 3 3 3 3 4 4 4 3 2 2 2 2 2 1 1 1 1 1 1 1 1 2 3 3 3 2 2 1 1
4 4 5 7 7 5 4 4 3 3 4 4 5 5 5 4 4 4 6 6 5 4 3 3 3 3 2 2 2 1 1 1 1 1 2 3 4 4 3 2 2 1 1
6 6 8 11 11 8 6 5 4 5 7 9 9 8 7 6 5 6 7 8 6 5 4 4 3 3 3 2 2 2 1 1 1 2 3 3 4 4 3 3 2 2 1
10 10 12 14 13 10 8 7 6 8 9 11 11 10 8 7 7 7 7 7 7 7 6 5 4 4 3 3 3 2 2 1 2 2 3 3 3 3 3 2 2 2 1
14 14 14 14 14 12 10 8 8 9 11 11 11 10 9 9 8 7 7 7 7 6 7 6 5 4 4 4 3 3 2 2 2 3 3 3 3 2 2 2 2 2 2
18 16 14 12 12 12 10 9 9 10 10 10 10 12 11 10 9 8 7 6 6 6 6 6 6 5 4 4 3 3 3 3 4 4 3 3 3 2 2 2 2 2 2
19 17 15 12 11 10 9 9 8 8 8 9 11 12 11 10 8 7 6 5 5 5 6 6 6 5 4 4 4 3 4 5 5 4 3 3 3 2 2 2 2 2 2
17 17 16 13 10 9 8 8 7 7 7 8 10 10 9 8 7 6 6 6 6 7 6 5 5 5 6 5 5 4 5 5 5 4 3 3 3 2 2 2 2 2 1
13 14 15 13 11 9 9 8 7 7 7 7 8 8 7 6 6 6 6 6 7 8 8 7 6 6 7 7 5 4 5 5 5 4 3 2 2 2 2 2 2 1 1
10 11 12 11 9 9 9 9 8 8 8 7 7 6 6 5 5 5 6 6 7 7 8 8 6 5 6 6 5 4 4 5 4 4 3 2 2 2 2 2 2 2 2
7 8 8 8 7 7 8 8 8 8 8 7 7 6 6 5 5 4 5 5 6 6 6 6 5 4 4 4 4 4 4 4 4 3 3 2 2 2 2 2 2 2 2
4 5 5 6 5 5 6 6 6 6 6 6 6 6 6 4 3 3 3 4 4 4 4 4 3 3 3 3 3 3 4 4 4 3 3 2 2 2 2 2 2 2 2
3 3 3 4 4 4 4 5 5 4 4 4 4 5 4 3 2 2 2 3 3 3 3 3 3 3 3 2 2 3 4 4 3 2 2 2 2 2 2 2 2 2 2
2 2 3 3 3 3 4 4 4 4 3 3 4 4 3 3 3 2 2 2 2 3 3 3 3 3 3 2 2 3 3 3 2 2 2 2 2 2 3 3 3 2 2
2 2 3 3 4 4 4 3 3 3 3 3 3 3 3 3 3 2 2 2 2 2 3 3 3 3 3 3 3 3 3 2 2 2 2 2 2 3 3 3 3 3 2
Wind_Speed
18 20 21 19 17 15 14 14 14 13 12 12 11 11 10 10 10 10 10 10 10 10 10 9 9 9 9 10 10 11 11 12 12 13 13 13 12 10 9 8 10 13 14
22 20 21 19 17 15 14 14 14 13 12 12 11 11 11 10 10 10 9 9 9 9 9 9 9 9 9 9 9 9 9 9 10 11 12 11 11 9 8 8 11 11 13
22 20 19 18 16 15 13 13 13 13 13 12 12 11 11 10 10 9 9 8 8 8 9 9 9 8 9 8 8 8 7 7 7 8 9 8 9 9 10 13 15 14 13
21 18 17 19 17 15 14 13 13 13 13 12 12 11 11 10 10 9 8 8 7 8 8 8 8 8 8 7 7 6 5 5 5 6 6 5 8 10 10 11 12 12 11
19 17 18 20 18 16 14 13 13 13 12 12 12 11 11 10 10 9 9 7 7 7 7 7 7 7 7 7 6 5 4 4 4 7 5 5 8 11 10 10 10 10 10
19 18 19 19 18 16 14 13 12 12 12 12 12 11 10 10 9 9 9 8 7 7 7 7 7 7 7 6 6 5 4 5 6 7 4 7 9 11 11 10 9 9 9
19 18 19 19 18 16 15 14 13 12 11 11 11 11 10 9 9 9 9 9 8 8 7 7 7 7 7 7 7 6 6 6 7 6 2 7 11 13 12 10 9 9 8
19 19 18 19 18 16 15 14 13 12 11 11 11 11 10 9 9 9 9 9 9 8 8 8 8 8 8 8 8 7 7 9 9 8 5 8 15 16 13 11 10 9 9
20 19 16 15 15 16 15 14 13 12 12 11 11 11 11 10 10 10 10 10 10 10 9 9 9 9 9 9 10 9 9 10 9 7 7 7 17 17 16 13 11 11 10
18 18 16 15 14 13 13 14 14 13 12 12 12 12 11 11 11 11 11 11 11 11 11 11 11 11 11 11 12 12 12 10 9 10 6 8 20 19 17 15 13 12 12
15 16 15 15 13 13 13 14 13 13 12 12 11 12 11 9 10 11 14 15 15 14 13 12 12 12 12 12 14 14 12 7 10 8 5 12 20 19 18 16 14 13 13
12 14 13 15 14 12 10 11 9 9 10 9 8 10 8 7 7 9 14 17 17 16 14 14 13 12 11 8 13 15 7 10 10 7 5 16 18 18 18 16 15 14 14
10 11 12 12 10 11 7 9 7 6 8 10 10 10 8 7 6 6 4 9 10 12 9 10 11 9 9 7 5 8 9 9 6 5 5 18 18 18 17 16 15 14 14
11 10 10 11 8 5 5 7 6 5 6 7 8 9 7 5 4 3 2 4 6 5 6 6 5 8 8 8 7 7 10 7 5 3 7 16 17 18 18 17 16 15 15
8 8 7 8 8 4 2 1 4 3 3 4 4 6 5 3 3 3 2 2 3 4 6 5 5 6 6 6 6 7 7 7 7 5 5 15 16 16 17 17 17 17 16
7 7 7 7 6 5 3 2 2 2 0 1 0 2 3 2 2 3 4 3 4 4 3 4 6 5 5 5 6 7 7 7 7 6 5 10 15 16 16 17 18 18 18
4 4 5 5 4 4 3 2 2 3 2 1 1 1 1 2 3 4 4 4 5 4 4 3 5 5 6 6 7 8 7 7 6 6 5 5 8 13 16 17 17 18 18
6 6 5 3 4 3 2 1 2 2 2 2 1 1 2 3 3 4 5 5 5 4 4 4 5 5 5 5 5 6 6 6 8 7 6 6 6 7 13 19 18 18 18
9 8 7 7 5 3 1 1 2 2 2 2 2 2 3 4 5 5 5 4 4 4 4 6 5 5 5 5 5 6 6 6 7 8 8 8 8 8 8 14 19 19 19
9 8 6 6 5 3 1 1 1 2 2 2 2 2 3 3 5 5 4 4 4 4 4 5 4 4 4 5 7 7 6 6 6 6 7 7 7 10 10 9 10 13 18
7 6 5 4 3 1 1 1 1 1 2 2 2 2 3 4 4 4 4 3 4 5 6 6 4 5 5 5 5 5 5 7 6 5 6 6 7 10 9 8 8 7 8
6 5 3 3 2 2 2 1 1 2 3 3 2 1 2 3 3 4 4 4 4 4 6 5 5 4 4 5 4 4 4 4 5 9 6 6 5 5 7 9 7 7 5
4 3 3 3 2 2 3 2 2 2 2 1 1 1 1 2 2 3 3 3 4 4 4 5 6 6 5 4 5 4 3 3 2 4 6 6 5 4 5 6 8 8 8
2 2 1 0 1 2 3 3 4 4 3 3 2 1 2 2 2 3 3 3 3 3 3 4 4 4 4 4 4 4 3 1 1 1 2 4 5 5 4 5 6 7 8
1 1 2 1 1 2 3 4 4 5 4 3 3 3 3 3 3 3 3 2 2 2 3 3 3 3 3 4 3 3 4 3 3 2 3 3 3 4 4 4 4 4 6
1 1 1 1 2 2 4 5 5 5 5 6 5 5 4 3 3 3 3 2 2 1 2 2 3 3 3 3 3 3 3 2 3 3 3 3 4 4 5 4 4 4 5
Wind_Direction
128 138 144 143 142 141 142 145 146 144 141 137 134 132 128 124 120 116 111 107 105 105 106 105 102 96 90 85 81 81 84 87 90 93 95 95 93 91 88 96 116 98 103
129 138 143 143 143 143 143 146 148 147 145 143 140 139 137 134 130 127 122 117 113 110 107 107 106 102 99 97 95 94 95 99 105 110 113 107 100 91 80 72 98 108 109
127 137 144 143 143 143 143 145 149 150 150 148 146 146 144 142 139 135 132 127 124 119 113 113 112 109 108 108 107 108 110 117 127 139 154 132 114 100 88 87 99 110 111
129 141 145 144 145 144 144 145 149 153 154 153 151 150 150 149 147 145 142 139 136 131 125 123 122 119 119 119 120 124 132 147 164 186 203 147 129 114 104 102 107 112 116
134 142 141 148 147 147 146 147 151 155 157 156 155 155 156 156 156 155 153 152 150 144 140 139 134 132 133 136 139 146 164 194 218 237 234 126 112 128 122 119 119 120 122
138 139 143 150 149 150 150 151 154 156 159 160 160 162 163 164 164 164 162 162 160 157 155 155 152 150 151 155 162 174 197 229 252 242 217 133 125 140 137 136 135 134 133
141 136 145 151 151 153 155 157 159 160 161 163 164 166 168 170 172 173 172 171 173 171 171 171 171 170 172 176 185 197 217 241 258 274 204 130 137 147 149 153 154 152 151
139 136 145 152 154 156 159 163 165 166 167 169 171 173 176 178 182 183 183 183 183 184 184 184 186 186 188 193 200 210 225 248 245 255 219 145 149 155 157 162 166 167 168
138 136 147 154 158 161 165 168 171 173 175 177 180 183 185 188 192 195 194 194 194 195 197 199 200 200 200 203 209 217 227 241 269 279 257 152 157 159 162 169 177 180 179
138 141 152 156 160 165 170 175 178 180 182 185 189 192 195 198 201 203 203 202 204 204 207 210 211 211 210 210 214 219 226 240 252 260 259 164 163 163 166 173 183 188 189
143 145 156 157 164 172 175 174 180 186 190 192 198 202 204 210 208 205 213 203 204 208 211 215 217 219 219 218 219 220 223 231 239 241 248 170 168 168 169 175 185 193 196
152 154 160 158 168 178 180 159 180 188 187 197 200 195 204 221 228 221 203 201 201 206 212 218 222 224 224 226 218 215 219 225 244 240 212 166 172 173 174 177 186 197 200
159 163 163 157 168 179 175 158 186 193 180 195 209 194 198 212 223 233 193 189 198 204 212 215 218 222 223 224 218 197 217 229 224 240 186 170 175 177 179 182 190 199 204
170 173 167 156 165 185 181 172 183 196 181 190 196 199 199 204 226 226 215 189 191 199 205 214 209 216 227 226 219 206 212 227 236 219 180 179 181 183 184 187 194 202 206
163 173 163 155 160 178 203 215 195 197 195 196 183 190 205 205 219 235 235 224 224 209 195 208 216 220 226 229 230 222 218 224 238 234 180 185 189 190 189 194 199 205 209
157 174 164 160 156 165 192 237 291 275 285 272 195 195 202 218 231 246 245 235 233 238 222 200 221 220 222 224 227 232 222 226 232 229 201 190 193 197 198 199 204 208 211
124 126 124 140 147 156 193 238 264 281 289 315 341 305 255 248 240 243 251 245 239 235 232 226 232 227 226 224 222 227 225 226 229 229 222 199 195 204 209 207 207 210 213
63 76 87 116 118 128 147 264 294 310 331 331 310 298 275 264 259 250 251 250 244 240 238 232 232 233 233 229 228 230 224 216 222 221 220 212 194 200 215 216 211 212 214
59 66 67 61 68 76 71 279 283 286 290 283 282 273 269 264 259 253 250 249 247 242 239 242 229 230 237 235 234 228 227 222 216 221 216 216 201 198 201 211 212 211 214
62 65 66 64 52 37 17 283 261 272 280 272 268 260 269 274 272 267 258 247 247 245 242 241 241 236 238 236 245 241 225 225 213 216 217 216 201 203 206 203 203 212 215
64 65 62 57 50 38 19 335 331 307 296 278 258 255 273 279 282 275 272 264 250 248 248 242 233 240 240 235 240 253 242 227 214 214 215 217 209 202 201 193 188 196 206
68 62 65 49 33 18 16 326 272 285 286 276 289 287 268 277 282 278 272 266 257 259 260 251 237 236 245 232 219 237 243 231 218 215 200 204 220 198 192 192 187 190 196
77 63 50 33 13 356 338 309 309 281 266 280 299 267 272 285 282 275 284 281 272 259 256 248 240 228 233 240 229 227 229 226 214 208 199 194 193 190 188 186 185 183 193
117 120 111 17 352 333 319 315 313 300 299 307 288 286 281 264 259 262 265 274 281 277 275 267 244 228 228 238 244 242 243 251 241 209 225 184 181 189 194 199 188 180 188
195 199 181 178 252 280 292 294 298 302 308 309 307 289 278 264 241 240 247 258 275 284 294 296 287 245 229 236 240 245 246 237 232 208 215 192 185 187 196 195 174 176 175
259 284 281 221 242 273 282 290 290 293 297 300 297 289 273 256 239 231 234 228 251 271 292 298 295 271 256 257 266 267 259 241 232 224 206 200 197 200 191 182 171 173 173